Location: Unspecified
(0.0000°N, 0.0000°E)
Time: 14:42:21
(UTC+00:00)

ADEOS II - Pass Details

Date: 27 January 2013
Orbit: 800 x 802 km, 98.3° (Epoch: 24 July)

Event Time Altitude Azimuth Distance (km) Brightness Sun altitude
Rises 19:26:38 0° 184° (S) 3,307 5.6 -17.5°
Reaches altitude 10° 19:29:07 10° 192° (SSW) 2,375 4.9 -18.1°
Maximum altitude 19:33:53 36° 258° (WSW) 1,255 3.7 -19.2°
Drops below altitude 10° 19:38:39 10° 323° (NW) 2,368 4.7 -20.3°
Sets 19:41:09 0° 332° (NNW) 3,296 5.4 -20.9°
